Location: Pedholt
(56.0260°N, 10.2097°E)
Time: 07:47:42
(UTC+00:00)

Transit 2A Rocket - Pass Details

Date: 30 July 2021
Orbit: 586 x 917 km, 66.7° (Epoch: 24 September)

Event Time Altitude Azimuth Distance (km) Brightness Sun altitude
Rises 18:44:01 0° 299° (WNW) 3,058 11.1 4.7°
Reaches altitude 10° 18:46:37 10° 312° (NW) 2,196 9.2 4.4°
Maximum altitude 18:50:51 27° 10° (N) 1,447 6.7 3.9°
Drops below altitude 10° 18:55:26 10° 67° (ENE) 2,384 7.2 3.3°
Sets 18:58:21 0° 80° (E) 3,374 7.9 3.0°
